sat.trackr.live / text

‹ back to catalog

STARLINK-34487

NORAD 64417 · 2025-129F

PAYLOAD ACTIVE UNKNOWN

§ Identity

Operator
Country
US
Launch date
2025-06-17
Launch site
AFWTR
Launch vehicle
Mass (kg)
RCS (m²)

Purposes: comms

External: N2YO · Heavens-Above · Gunter

§ Orbital elements

Epoch: 2026-09-20T12:51:49.720896Z

Period
94.14 min
Inclination
70.0006°
Eccentricity
0.0003977
Mean motion
15.29588698 rev/d
Perigee alt
474.3 km
Apogee alt
479.8 km
Semi-major
6,855.2 km
B*
2.7115e-4
RAAN
300.7790°
Arg perigee
283.8900°
Mean anomaly
76.1833°
Rev number
7,047

§ Raw data

STARLINK-344871 64417U 25129F   26263.53599214  .00007677  00000+0  27115-3 0  99932 64417  70.0006 300.7790 0003977 283.8900  76.1833 15.29588698 70476

JSON: /api/v1/satellites/64417 · /tle

For live sub-satellite position, see the globe view (requires WebGL).

§ Visibility from observer

Set your observer location to see the next 7 days of passes ≥ 10°. The values pass through the URL so the page stays shareable.

No JS? Fill the form by hand. The geolocation button needs JavaScript.